ONEWEB-0708, 61613

Orbit data source: Space-Track

ONEWEB-0708, 61613 is a payload satellite owned by Eut. One Web (UK) in LEO that was launched on Sun, 20 Oct 2024 UTC via an FALCON 9 launch vehicle from the Air Force Western Test Range (AFWTR). Payload-class satellites include a variety of spacecraft equipped with specific instruments for various scientific and technological missions. These include communications satellites like Starlink; space stations such as the ISS; scientific satellites like the Hubble; Earth observation satellites from companies like Planet Labs, Umbra, and HawkEye 360; GPS; miniature CubeSats for education and research; and military/defense satellites.

Loading next visibility...
Identifier
61613, 2024-188V
Orbit
LEO
Country
Flag of UKUK
Related business
Manufacturer
One Web
Mission
Operational Commercial Communications
Bus & Motor
ARROW, Unknown motor
Mass
148 kg wet, ~140 kg dry
Launch date (UTC)
2024-10-20 (2 years ago)
Launch vehicle
FALCON 9
Launch site
Air Force Western Test Range (AFWTR)
Object type
Payload
Rocket body
Debris
Shape & HBR
Trap Box + 2 Pan, 6.7 m
Radar Cross Section
3.464 m², Large (>1 m²)

Expand to show TLE details & history
Last TLE update: 11 hours ago

TLE from 11 hours ago
0 ONEWEB-0708
1 61613U 24188V   26126.77497722  .00000173  00000-0  45981-3 0  9993
2 61613  87.8851  44.5192 0001690  95.6658 264.4663 13.10370527 77875
Epoch: 2026-05-06T18:35Z
TLE epoch observation values (Epoch: 2026-05-06T18:35:58.031Z)
Latitude
0.00005°
Longitude
-99.10323°
Altitude
1,224.738 km
Speed
7.242 km/s
True Right ascension
02h 58m 04s
True Declination
0° 00' 00"
Sunlit
Object was in daylight at epoch
Visualization orbit readout
Latitude
Unknown
Longitude
Unknown
Altitude
Unknown
Speed
Unknown
Apparent Right ascension
Unknown
Apparent Declination
Unknown
Sunlit
N/A
Visualization observer readout
Local Sidereal Time
13:28:03
Azimuth
Unknown
Elevation
Unknown
Doppler factor
Unknown
Orbital elements
Apogee altitude
1,220.13 km
Perigee altitude
1,217.562 km
Semi-major axis
7,596.983 km
Eccentricity
0.00017
Inclination
87.8851°
RAAN
44.5192°
Arg. of periapsis
95.6658°
True anomaly
264.44702°
Mean anomaly
264.4663°
Eccentric anomaly
264.45666°
Mean motion
3.27779 °/min
Orbital period
109.83 mins
BSTAR
0.00045981
Loading maneuver chart data...
Computing Atmospheric mass density...
Loading historical data...
Loading historical data...
Loading historical data...
Loading historical data...
Loading historical data...
Loading historical data...
Loading historical data...

Documentation

Showing up to 5 results
|